Hourly Weather Roundup
Issued by NWS Central Illinois

Home | Current Version | Previous Version | Text Only | Print | Product List | Glossary On
Versions: 1 2 3 4 5 6 7 8 9 10 11 12 13 14 15 16 17 18 19 20 21 22 23 24 25 26 27 28 29 30 31 32 33 34 35 36 37 38 39 40 41 42 43 44 45 46 47 48 49 50
000
NZUS43 KILX 162310
HWRILX

AREA WEATHER ROUNDUP
NATIONAL WEATHER SERVICE, LINCOLN IL
600 PM CDT TUE SEP 16 2014


CITY           SKY/WX    TMP DP  RH WIND       PRES   REMARKS
BLOOMINGTON    SUNNY     65  40  39 CALM      30.11F
CHAMPAIGN      SUNNY     67  47  48 CALM      30.10F
DECATUR        SUNNY     67  49  52 SW5       30.11S
FLORA          SUNNY     64  49  59 E3        30.12S
GALESBURG      SUNNY     68  48  47 SE3       30.10F
JACKSONVILLE   SUNNY     69  49  49 CALM      30.11S
LACON          SUNNY     65  42  42 CALM      30.10F
LAWRENCEVILLE  SUNNY     65  51  60 CALM      30.11F
LITCHFIELD     SUNNY     63  51  64 SE3       30.12S
$$


CITY           SKY/WX    TMP DP  RH WIND       PRES   REMARKS
LINCOLN        SUNNY     69  46  44 CALM      30.07S
MACOMB         SUNNY     67  44  44 CALM      30.12F
MATTOON        MOSUNNY   64  52  64 VRB3      30.09F
MT CARMEL AP   MOSUNNY   64  52  63 CALM      30.11F
OLNEY-NOBLE AP SUNNY     63  50  63 CALM      30.12S
PARIS          SUNNY     66  49  53 CALM      30.11F
PEORIA         SUNNY     68  46  45 CALM      30.10F
PONTIAC        SUNNY     66  43  42 CALM      30.10F
RANTOUL        SUNNY     68  42  38 CALM      30.11S
ROBINSON       PTSUNNY   66  53  62 CALM      30.12S
SPRINGFIELD    SUNNY     67  49  52 SE3       30.10F
TAYLORVILLE    SUNNY     63  48  59 CALM      30.10F
$$

...REGIONAL REPORTS...


CITY           SKY/WX    TMP DP  RH WIND       PRES   REMARKS
CHICAGO O`HARE SUNNY     68  40  35 W9        30.09F
KANKAKEE       SUNNY     65  46  49 CALM      30.11S
MOLINE         SUNNY     67  42  40 CALM      30.10F
MOUNT VERNON   PTSUNNY   64  52  63 CALM      30.13S
PITTSFIELD     SUNNY     68  48  47 CALM      30.10F
QUINCY         SUNNY     67  47  48 CALM      30.09F
ROCKFORD       SUNNY     66  41  40 NW5       30.11F
$$


CITY           SKY/WX    TMP DP  RH WIND       PRES   REMARKS
BURLINGTON     SUNNY     67  46  47 CALM      30.09F
CEDAR RAPIDS   SUNNY     64  46  52 S3        30.09F
DES MOINES     SUNNY     67  47  48 S6        30.07F
KIRKSVILLE     SUNNY     66  49  54 SE5       30.09F
OTTUMWA        SUNNY     64  46  52 S5        30.08F
ST LOUIS       MOSUNNY   66  53  63 NE6       30.11F
$$


CITY           SKY/WX    TMP DP  RH WIND       PRES   REMARKS
TERRE HAUTE    PTCLDY    62  52  69 NW3       30.10F
EVANSVILLE     CLOUDY    63  52  67 NE7       30.11F
INDIANAPOLIS   PTCLDY    63  48  58 SE3       30.10S
LAFAYETTE      CLEAR     63  48  58 CALM      30.10F
MADISON        MOSUNNY   63  43  48 NW3       30.09F
MILWAUKEE      MOSUNNY   59  42  53 SE10      30.10S
$$





USA.gov is the U.S. government's official web portal to all federal, state and local government web resources and services.